This is the latest recevied weather packets stored in our database for station/object SV9TNF-56. If no packets are shown the sender has not sent any weather packets the latest 10 day(s).
| Time | Temp. | Humidity | Pressure | Rain* | Wind** | Luminosity | Snow |
|---|---|---|---|---|---|---|---|
| 1788471265 | 24.44° C | 67% | 1009.8 hPa | 0 mm | 19.67 m/s, 222° | - | - |
| 1788470964 | 24.44° C | 66% | 1009.8 hPa | 0 mm | 8.05 m/s, 216° | - | - |
| 1788470665 | 24.44° C | 65% | 1009.8 hPa | 0 mm | 15.2 m/s, 265° | - | - |
| 1788470364 | 24.44° C | 65% | 1009.8 hPa | 0 mm | 12.52 m/s, 245° | - | - |
| 1788470064 | 24.44° C | 66% | 1009.8 hPa | 0 mm | 9.83 m/s, 180° | - | - |
| 1788469764 | 24.44° C | 67% | 1009.8 hPa | 0 mm | 8.49 m/s, 120° | - | - |
| 1788469464 | 24.44° C | 66% | 1009.8 hPa | 0 mm | 8.05 m/s, 161° | - | - |
| 1788469164 | 24.44° C | 66% | 1009.5 hPa | 0 mm | 17.88 m/s, 160° | - | - |
| 1788468864 | 24.44° C | 66% | 1009.8 hPa | 0 mm | 13.86 m/s, 183° | - | - |
| 1788468564 | 24.44° C | 66% | 1009.8 hPa | 0 mm | 8.49 m/s, 149° | - | - |
| 1788468264 | 24.44° C | 67% | 1009.5 hPa | 0 mm | 13.86 m/s, 186° | - | - |
| 1788467963 | 24.44° C | 68% | 1009.5 hPa | 0 mm | 16.54 m/s, 120° | - | - |
| 1788467663 | 24.44° C | 68% | 1009.8 hPa | 0 mm | 11.18 m/s, 225° | - | - |
| 1788467363 | 24.44° C | 68% | 1009.5 hPa | 0 mm | 8.49 m/s, 132° | - | - |
| 1788467074 | 24.44° C | 68% | 1009.5 hPa | 0 mm | 13.41 m/s, 126° | - | - |
| 1788466763 | 24.44° C | 68% | 1009.8 hPa | 0 mm | 16.99 m/s, 109° | - | - |
| 1788466463 | 24.44° C | 69% | 1009.5 hPa | 0 mm | 15.2 m/s, 102° | - | - |
| 1788466163 | 24.44° C | 69% | 1009.5 hPa | 0 mm | 21.01 m/s, 153° | - | - |
| 1788465864 | 24.44° C | 68% | 1009.8 hPa | 0 mm | 21.46 m/s, 84° | - | - |
| 1788465563 | 24.44° C | 69% | 1009.5 hPa | 0 mm | 28.61 m/s, 120° | - | - |
| 1788465263 | 24.44° C | 69% | 1009.5 hPa | 0 mm | 11.18 m/s, 84° | - | - |
| 1788464962 | 24.44° C | 68% | 1009.5 hPa | 0 mm | 9.83 m/s, 147° | - | - |
| 1788464662 | 24.44° C | 68% | 1009.5 hPa | 0 mm | 14.31 m/s, 123° | - | - |
| 1788464362 | 24.44° C | 68% | 1009.5 hPa | 0 mm | 12.07 m/s, 171° | - | - |
| 1788464063 | 24.44° C | 68% | 1009.1 hPa | 0 mm | 13.41 m/s, 120° | - | - |
* Rain latest hour (hover to see other rain measurements)
** Current wind speed in m/s (hover to see current wind gust speed)